Time,TemperatureF,DewpointF,PressureIn,WindDirection,WindDirectionDegrees,WindSpeedMPH,WindSpeedGustMPH,Humidity,HourlyPrecipIn,Conditions,Clouds,dailyrainin,SoftwareType,DateUTC
2013-01-08 00:04:00,36.0,26.0,30.42,SSW,205,0.0,-999.0,67,-99.99,,,-99.99,,2013-01-08 05:04:00,
2013-01-08 00:12:00,36.0,26.0,30.42,SSW,205,0.0,-999.0,67,-99.99,,,-99.99,,2013-01-08 05:12:00,
2013-01-08 00:22:00,36.0,27.0,30.43,SSW,205,0.0,-999.0,69,-99.99,,,-99.99,,2013-01-08 05:22:00,
2013-01-08 00:33:00,36.0,27.0,30.43,SSW,205,0.0,-999.0,69,-99.99,,,-99.99,,2013-01-08 05:33:00,
2013-01-08 00:43:00,36.0,27.0,30.43,SSW,205,0.0,-999.0,69,-99.99,,,-99.99,,2013-01-08 05:43:00,
2013-01-08 00:53:00,35.0,26.0,30.43,SSW,205,0.0,-999.0,70,-99.99,,,-99.99,,2013-01-08 05:53:00,
2013-01-08 01:02:00,35.0,26.0,30.43,SSW,205,0.0,-999.0,70,-99.99,,,-99.99,,2013-01-08 06:02:00,
2013-01-08 01:12:00,35.0,26.0,30.43,SSW,205,0.0,-999.0,70,-99.99,,,-99.99,,2013-01-08 06:12:00,
2013-01-08 01:22:00,35.0,27.0,30.42,SSW,205,0.0,-999.0,72,-99.99,,,-99.99,,2013-01-08 06:22:00,
2013-01-08 01:33:00,34.0,26.0,30.42,SSW,205,0.0,-999.0,72,-99.99,,,-99.99,,2013-01-08 06:33:00,
2013-01-08 01:42:00,34.0,26.0,30.42,SSW,205,0.0,-999.0,72,-99.99,,,-99.99,,2013-01-08 06:42:00,
2013-01-08 01:52:00,34.0,26.0,30.42,SSW,205,0.0,-999.0,73,-99.99,,,-99.99,,2013-01-08 06:52:00,
2013-01-08 02:02:00,34.0,26.0,30.42,SSW,205,0.0,-999.0,73,-99.99,,,-99.99,,2013-01-08 07:02:00,
2013-01-08 02:12:00,34.0,26.0,30.42,SSW,205,0.0,-999.0,73,-99.99,,,-99.99,,2013-01-08 07:12:00,
2013-01-08 02:22:00,35.0,27.0,30.42,SSW,205,0.0,-999.0,73,-99.99,,,-99.99,,2013-01-08 07:22:00,
2013-01-08 02:32:00,35.0,28.0,30.42,SSW,205,0.0,-999.0,76,-99.99,,,-99.99,,2013-01-08 07:32:00,
2013-01-08 02:42:00,35.0,28.0,30.42,SSW,205,0.0,-999.0,76,-99.99,,,-99.99,,2013-01-08 07:42:00,
2013-01-08 02:52:00,35.0,27.0,30.41,SSW,205,0.0,-999.0,72,-99.99,,,-99.99,,2013-01-08 07:52:00,
2013-01-08 03:02:00,35.0,27.0,30.42,SSW,205,0.0,-999.0,73,-99.99,,,-99.99,,2013-01-08 08:02:00,
2013-01-08 03:12:00,35.0,27.0,30.42,SSW,205,0.0,-999.0,73,-99.99,,,-99.99,,2013-01-08 08:12:00,
2013-01-08 03:22:00,35.0,27.0,30.42,SSW,205,0.0,-999.0,72,-99.99,,,-99.99,,2013-01-08 08:22:00,
2013-01-08 03:32:00,34.0,27.0,30.42,SSW,205,0.0,-999.0,74,-99.99,,,-99.99,,2013-01-08 08:32:00,
2013-01-08 03:42:00,34.0,27.0,30.42,SSW,205,0.0,-999.0,74,-99.99,,,-99.99,,2013-01-08 08:42:00,
2013-01-08 03:52:00,34.0,27.0,30.42,SSW,205,0.0,-999.0,75,-99.99,,,-99.99,,2013-01-08 08:52:00,
2013-01-08 04:02:00,33.0,26.0,30.41,SSW,205,0.0,-999.0,76,-99.99,,,-99.99,,2013-01-08 09:02:00,
2013-01-08 04:12:00,33.0,26.0,30.41,SSW,205,0.0,-999.0,76,-99.99,,,-99.99,,2013-01-08 09:12:00,
2013-01-08 04:22:00,34.0,27.0,30.41,SSW,205,0.0,-999.0,76,-99.99,,,-99.99,,2013-01-08 09:22:00,
2013-01-08 04:33:00,34.0,27.0,30.41,SSW,205,0.0,-999.0,76,-99.99,,,-99.99,,2013-01-08 09:33:00,
2013-01-08 04:42:00,34.0,27.0,30.41,SSW,205,0.0,-999.0,76,-99.99,,,-99.99,,2013-01-08 09:42:00,
2013-01-08 04:52:00,34.0,27.0,30.40,SSW,205,0.0,-999.0,75,-99.99,,,-99.99,,2013-01-08 09:52:00,
2013-01-08 05:02:00,34.0,27.0,30.40,SSW,205,0.0,-999.0,76,-99.99,,,-99.99,,2013-01-08 10:02:00,
2013-01-08 05:12:00,34.0,27.0,30.40,SSW,205,0.0,-999.0,76,-99.99,,,-99.99,,2013-01-08 10:12:00,
2013-01-08 05:22:00,34.0,27.0,30.40,SSW,205,0.0,-999.0,76,-99.99,,,-99.99,,2013-01-08 10:22:00,
2013-01-08 05:33:00,34.0,27.0,30.40,SSW,205,0.0,-999.0,76,-99.99,,,-99.99,,2013-01-08 10:33:00,
2013-01-08 05:42:00,34.0,27.0,30.40,SSW,205,0.0,-999.0,76,-99.99,,,-99.99,,2013-01-08 10:42:00,
2013-01-08 05:52:00,33.0,27.0,30.40,SSW,205,0.0,-999.0,77,-99.99,,,-99.99,,2013-01-08 10:52:00,
2013-01-08 06:02:00,32.0,26.0,30.41,SSW,205,0.0,-999.0,79,-99.99,,,-99.99,,2013-01-08 11:02:00,
2013-01-08 06:12:00,32.0,26.0,30.41,SSW,205,0.0,-999.0,79,-99.99,,,-99.99,,2013-01-08 11:12:00,
2013-01-08 06:22:00,30.0,25.0,30.42,SSW,205,0.0,-999.0,82,-99.99,,,-99.99,,2013-01-08 11:22:00,
2013-01-08 06:33:00,30.0,25.0,30.42,SSW,205,0.0,-999.0,83,-99.99,,,-99.99,,2013-01-08 11:33:00,
2013-01-08 06:42:00,30.0,25.0,30.42,SSW,205,0.0,-999.0,83,-99.99,,,-99.99,,2013-01-08 11:42:00,
2013-01-08 06:53:00,30.0,26.0,30.43,SSW,205,0.0,-999.0,84,-99.99,,,-99.99,,2013-01-08 11:53:00,
2013-01-08 07:03:00,30.0,25.0,30.43,SSW,205,0.0,-999.0,83,-99.99,,,-99.99,,2013-01-08 12:03:00,
2013-01-08 07:12:00,30.0,25.0,30.43,SSW,205,0.0,-999.0,83,-99.99,,,-99.99,,2013-01-08 12:12:00,
2013-01-08 07:22:00,30.0,26.0,30.43,SSW,205,0.0,-999.0,84,-99.99,,,-99.99,,2013-01-08 12:22:00,
2013-01-08 07:33:00,31.0,27.0,30.43,SSW,205,0.0,-999.0,84,-99.99,,,-99.99,,2013-01-08 12:33:00,
2013-01-08 07:42:00,31.0,27.0,30.43,SSW,205,0.0,-999.0,84,-99.99,,,-99.99,,2013-01-08 12:42:00,
2013-01-08 07:53:00,31.0,26.0,30.43,SSW,205,0.0,-999.0,83,-99.99,,,-99.99,,2013-01-08 12:53:00,
2013-01-08 08:03:00,31.0,26.0,30.45,SW,214,0.0,-999.0,83,-99.99,,,-99.99,,2013-01-08 13:03:00,
2013-01-08 08:12:00,31.0,26.0,30.45,SW,214,0.0,-999.0,83,-99.99,,,-99.99,,2013-01-08 13:12:00,
2013-01-08 08:22:00,32.0,27.0,30.44,SW,214,0.0,-999.0,82,-99.99,,,-99.99,,2013-01-08 13:22:00,
2013-01-08 08:33:00,32.0,27.0,30.44,SW,214,0.0,-999.0,82,-99.99,,,-99.99,,2013-01-08 13:33:00,
2013-01-08 08:43:00,32.0,27.0,30.44,SW,214,0.0,-999.0,82,-99.99,,,-99.99,,2013-01-08 13:43:00,
2013-01-08 08:52:00,33.0,28.0,30.45,SW,214,0.0,-999.0,81,-99.99,,,-99.99,,2013-01-08 13:52:00,
2013-01-08 09:03:00,34.0,28.0,30.45,SW,214,0.0,-999.0,79,-99.99,,,-99.99,,2013-01-08 14:03:00,
2013-01-08 09:13:00,34.0,28.0,30.45,SW,214,0.0,-999.0,79,-99.99,,,-99.99,,2013-01-08 14:13:00,
2013-01-08 09:23:00,35.0,29.0,30.46,SW,214,0.0,-999.0,78,-99.99,,,-99.99,,2013-01-08 14:23:00,
2013-01-08 09:33:00,37.0,30.0,30.47,SW,214,0.0,-999.0,76,-99.99,,,-99.99,,2013-01-08 14:33:00,
2013-01-08 09:43:00,37.0,30.0,30.47,SW,214,0.0,-999.0,76,-99.99,,,-99.99,,2013-01-08 14:43:00,
2013-01-08 09:53:00,38.0,30.0,30.47,SW,214,0.0,-999.0,73,-99.99,,,-99.99,,2013-01-08 14:53:00,
2013-01-08 10:03:00,40.0,32.0,30.47,SW,214,0.0,-999.0,72,-99.99,,,-99.99,,2013-01-08 15:03:00,
2013-01-08 10:12:00,40.0,32.0,30.47,SW,214,0.0,-999.0,72,-99.99,,,-99.99,,2013-01-08 15:12:00,
2013-01-08 10:22:00,40.0,31.0,30.47,SW,214,0.0,-999.0,69,-99.99,,,-99.99,,2013-01-08 15:22:00,
2013-01-08 10:33:00,41.0,31.0,30.47,SW,214,0.0,-999.0,67,-99.99,,,-99.99,,2013-01-08 15:33:00,
2013-01-08 10:43:00,41.0,31.0,30.47,SW,214,0.0,-999.0,67,-99.99,,,-99.99,,2013-01-08 15:43:00,
2013-01-08 10:53:00,42.0,31.0,30.47,South,169,0.0,-999.0,65,-99.99,,,-99.99,,2013-01-08 15:53:00,
2013-01-08 11:03:00,43.0,32.0,30.47,South,178,0.0,-999.0,66,-99.99,,,-99.99,,2013-01-08 16:03:00,
2013-01-08 11:13:00,43.0,32.0,30.47,South,178,0.0,-999.0,66,-99.99,,,-99.99,,2013-01-08 16:13:00,
2013-01-08 11:23:00,43.0,32.0,30.47,South,178,0.0,-999.0,66,-99.99,,,-99.99,,2013-01-08 16:23:00,
2013-01-08 11:34:00,44.0,33.0,30.46,South,188,0.0,-999.0,65,-99.99,,,-99.99,,2013-01-08 16:34:00,
2013-01-08 11:43:00,44.0,33.0,30.46,South,188,0.0,-999.0,65,-99.99,,,-99.99,,2013-01-08 16:43:00,
2013-01-08 11:53:00,44.0,33.0,30.46,South,177,0.0,-999.0,65,-99.99,,,-99.99,,2013-01-08 16:53:00,
2013-01-08 12:03:00,44.0,33.0,30.45,SSW,192,0.0,-999.0,65,-99.99,,,-99.99,,2013-01-08 17:03:00,
2013-01-08 12:13:00,44.0,33.0,30.45,SSW,192,0.0,-999.0,65,-99.99,,,-99.99,,2013-01-08 17:13:00,
2013-01-08 12:23:00,45.0,33.0,30.45,South,190,0.0,-999.0,62,-99.99,,,-99.99,,2013-01-08 17:23:00,
2013-01-08 12:34:00,46.0,33.0,30.43,South,184,1.0,-999.0,60,-99.99,,,-99.99,,2013-01-08 17:34:00,
2013-01-08 12:43:00,46.0,33.0,30.43,South,184,1.0,-999.0,60,-99.99,,,-99.99,,2013-01-08 17:43:00,
2013-01-08 12:53:00,46.0,32.0,30.43,SSE,158,2.0,-999.0,59,-99.99,,,-99.99,,2013-01-08 17:53:00,
2013-01-08 13:04:00,47.0,33.0,30.43,SE,142,1.0,-999.0,59,-99.99,,,-99.99,,2013-01-08 18:04:00,
2013-01-08 13:13:00,47.0,33.0,30.43,SE,142,1.0,-999.0,59,-99.99,,,-99.99,,2013-01-08 18:13:00,
2013-01-08 13:23:00,47.0,33.0,30.42,SSW,200,2.0,-999.0,59,-99.99,,,-99.99,,2013-01-08 18:23:00,
2013-01-08 13:33:00,48.0,34.0,30.41,SSW,198,2.0,-999.0,57,-99.99,,,-99.99,,2013-01-08 18:33:00,
2013-01-08 13:43:00,48.0,34.0,30.41,SSW,198,2.0,-999.0,57,-99.99,,,-99.99,,2013-01-08 18:43:00,
2013-01-08 13:53:00,49.0,34.0,30.41,South,170,2.0,-999.0,57,-99.99,,,-99.99,,2013-01-08 18:53:00,
2013-01-08 14:03:00,49.0,34.0,30.41,South,171,2.0,-999.0,57,-99.99,,,-99.99,,2013-01-08 19:03:00,
2013-01-08 14:12:00,49.0,34.0,30.41,South,171,2.0,-999.0,57,-99.99,,,-99.99,,2013-01-08 19:12:00,
2013-01-08 14:23:00,48.0,34.0,30.41,SSE,167,2.0,-999.0,58,-99.99,,,-99.99,,2013-01-08 19:23:00,
2013-01-08 14:33:00,50.0,34.0,30.41,SW,219,1.0,-999.0,55,-99.99,,,-99.99,,2013-01-08 19:33:00,
2013-01-08 14:43:00,50.0,34.0,30.41,SW,219,1.0,-999.0,55,-99.99,,,-99.99,,2013-01-08 19:43:00,
2013-01-08 14:53:00,51.0,34.0,30.40,SSE,160,1.0,-999.0,52,-99.99,,,-99.99,,2013-01-08 19:53:00,
2013-01-08 15:03:00,51.0,34.0,30.40,WNW,298,1.0,-999.0,53,-99.99,,,-99.99,,2013-01-08 20:03:00,
2013-01-08 15:12:00,51.0,34.0,30.40,WNW,298,1.0,-999.0,53,-99.99,,,-99.99,,2013-01-08 20:12:00,
2013-01-08 15:23:00,52.0,34.0,30.39,SSE,166,0.0,-999.0,51,-99.99,,,-99.99,,2013-01-08 20:23:00,
2013-01-08 15:33:00,52.0,34.0,30.39,South,172,0.0,-999.0,51,-99.99,,,-99.99,,2013-01-08 20:33:00,
2013-01-08 15:43:00,52.0,34.0,30.39,South,172,0.0,-999.0,51,-99.99,,,-99.99,,2013-01-08 20:43:00,
2013-01-08 15:53:00,53.0,35.0,30.39,SW,232,0.0,-999.0,51,-99.99,,,-99.99,,2013-01-08 20:53:00,
2013-01-08 16:03:00,52.0,34.0,30.39,South,187,0.0,-999.0,51,-99.99,,,-99.99,,2013-01-08 21:03:00,
2013-01-08 16:13:00,52.0,34.0,30.39,South,187,0.0,-999.0,51,-99.99,,,-99.99,,2013-01-08 21:13:00,
2013-01-08 16:23:00,51.0,34.0,30.39,South,178,1.0,-999.0,53,-99.99,,,-99.99,,2013-01-08 21:23:00,
2013-01-08 16:33:00,51.0,35.0,30.40,South,170,1.0,-999.0,54,-99.99,,,-99.99,,2013-01-08 21:33:00,
2013-01-08 16:43:00,51.0,35.0,30.40,South,170,1.0,-999.0,54,-99.99,,,-99.99,,2013-01-08 21:43:00,
2013-01-08 16:53:00,50.0,35.0,30.40,South,173,0.0,-999.0,57,-99.99,,,-99.99,,2013-01-08 21:53:00,
2013-01-08 17:03:00,50.0,35.0,30.40,SSE,168,0.0,-999.0,57,-99.99,,,-99.99,,2013-01-08 22:03:00,
2013-01-08 17:12:00,50.0,35.0,30.40,SSE,168,0.0,-999.0,57,-99.99,,,-99.99,,2013-01-08 22:12:00,
2013-01-08 17:23:00,49.0,36.0,30.40,SSE,168,0.0,-999.0,61,-99.99,,,-99.99,,2013-01-08 22:23:00,
2013-01-08 17:33:00,48.0,36.0,30.40,SSE,168,0.0,-999.0,62,-99.99,,,-99.99,,2013-01-08 22:33:00,
2013-01-08 17:43:00,48.0,36.0,30.40,SSE,168,0.0,-999.0,62,-99.99,,,-99.99,,2013-01-08 22:43:00,
2013-01-08 17:52:00,46.0,35.0,30.40,SSE,168,0.0,-999.0,65,-99.99,,,-99.99,,2013-01-08 22:52:00,
2013-01-08 18:03:00,46.0,35.0,30.40,SSE,168,0.0,-999.0,65,-99.99,,,-99.99,,2013-01-08 23:03:00,
2013-01-08 18:13:00,46.0,35.0,30.40,SSE,168,0.0,-999.0,65,-99.99,,,-99.99,,2013-01-08 23:13:00,
2013-01-08 18:22:00,46.0,35.0,30.40,SSE,168,0.0,-999.0,65,-99.99,,,-99.99,,2013-01-08 23:22:00,
2013-01-08 18:33:00,45.0,35.0,30.41,SSE,168,0.0,-999.0,68,-99.99,,,-99.99,,2013-01-08 23:33:00,
2013-01-08 18:43:00,45.0,35.0,30.41,SSE,168,0.0,-999.0,68,-99.99,,,-99.99,,2013-01-08 23:43:00,
2013-01-08 18:53:00,44.0,34.0,30.41,SSE,168,0.0,-999.0,68,-99.99,,,-99.99,,2013-01-08 23:53:00,
2013-01-08 19:03:00,44.0,34.0,30.41,SSE,168,0.0,-999.0,69,-99.99,,,-99.99,,2013-01-09 00:03:00,
2013-01-08 19:12:00,44.0,34.0,30.41,SSE,168,0.0,-999.0,69,-99.99,,,-99.99,,2013-01-09 00:12:00,
2013-01-08 19:22:00,44.0,35.0,30.41,SSE,168,0.0,-999.0,70,-99.99,,,-99.99,,2013-01-09 00:22:00,
2013-01-08 19:33:00,43.0,34.0,30.41,SSE,168,0.0,-999.0,70,-99.99,,,-99.99,,2013-01-09 00:33:00,
2013-01-08 19:43:00,43.0,34.0,30.41,SSE,168,0.0,-999.0,70,-99.99,,,-99.99,,2013-01-09 00:43:00,
2013-01-08 19:52:00,43.0,34.0,30.42,SSE,168,0.0,-999.0,71,-99.99,,,-99.99,,2013-01-09 00:52:00,
2013-01-08 20:02:00,43.0,34.0,30.42,SSE,168,0.0,-999.0,71,-99.99,,,-99.99,,2013-01-09 01:02:00,
2013-01-08 20:12:00,43.0,34.0,30.42,SSE,168,0.0,-999.0,71,-99.99,,,-99.99,,2013-01-09 01:12:00,
2013-01-08 20:22:00,44.0,36.0,30.43,SSE,168,0.0,-999.0,72,-99.99,,,-99.99,,2013-01-09 01:22:00,
2013-01-08 20:33:00,44.0,35.0,30.42,SSE,168,0.0,-999.0,71,-99.99,,,-99.99,,2013-01-09 01:33:00,
2013-01-08 20:42:00,44.0,35.0,30.42,SSE,168,0.0,-999.0,71,-99.99,,,-99.99,,2013-01-09 01:42:00,
2013-01-08 20:52:00,44.0,35.0,30.43,SSE,168,0.0,-999.0,71,-99.99,,,-99.99,,2013-01-09 01:52:00,
2013-01-08 21:02:00,45.0,36.0,30.43,SSE,168,0.0,-999.0,70,-99.99,,,-99.99,,2013-01-09 02:02:00,
2013-01-08 21:12:00,45.0,36.0,30.43,SSE,168,0.0,-999.0,70,-99.99,,,-99.99,,2013-01-09 02:12:00,
2013-01-08 21:22:00,45.0,36.0,30.43,SSE,168,0.0,-999.0,70,-99.99,,,-99.99,,2013-01-09 02:22:00,
2013-01-08 21:33:00,45.0,36.0,30.42,SSE,168,0.0,-999.0,70,-99.99,,,-99.99,,2013-01-09 02:33:00,
2013-01-08 21:43:00,45.0,36.0,30.42,SSE,168,0.0,-999.0,70,-99.99,,,-99.99,,2013-01-09 02:43:00,
2013-01-08 21:52:00,45.0,36.0,30.42,SSE,168,0.0,-999.0,70,-99.99,,,-99.99,,2013-01-09 02:52:00,
2013-01-08 22:03:00,45.0,36.0,30.42,SSE,168,0.0,-999.0,70,-99.99,,,-99.99,,2013-01-09 03:03:00,
2013-01-08 22:12:00,45.0,36.0,30.42,SSE,168,0.0,-999.0,70,-99.99,,,-99.99,,2013-01-09 03:12:00,
2013-01-08 22:22:00,45.0,36.0,30.42,SSE,168,0.0,-999.0,71,-99.99,,,-99.99,,2013-01-09 03:22:00,
2013-01-08 22:33:00,45.0,37.0,30.43,SSE,168,0.0,-999.0,72,-99.99,,,-99.99,,2013-01-09 03:33:00,
2013-01-08 22:43:00,45.0,37.0,30.43,SSE,168,0.0,-999.0,72,-99.99,,,-99.99,,2013-01-09 03:43:00,
2013-01-08 22:52:00,45.0,37.0,30.43,SSE,168,0.0,-999.0,72,-99.99,,,-99.99,,2013-01-09 03:52:00,
2013-01-08 23:02:00,44.0,35.0,30.43,SSE,168,0.0,-999.0,71,-99.99,,,-99.99,,2013-01-09 04:02:00,
2013-01-08 23:12:00,44.0,35.0,30.43,SSE,168,0.0,-999.0,71,-99.99,,,-99.99,,2013-01-09 04:12:00,
2013-01-08 23:22:00,44.0,36.0,30.44,SSE,168,0.0,-999.0,73,-99.99,,,-99.99,,2013-01-09 04:22:00,
2013-01-08 23:33:00,44.0,36.0,30.44,SSE,168,0.0,-999.0,73,-99.99,,,-99.99,,2013-01-09 04:33:00,
2013-01-08 23:42:00,44.0,36.0,30.44,SSE,168,0.0,-999.0,72,-99.99,,,-99.99,,2013-01-09 04:42:00,
2013-01-08 23:52:00,44.0,36.0,30.44,SSE,168,0.0,-999.0,72,-99.99,,,-99.99,,2013-01-09 04:52:00,